IUS R/B(1)

Satellite information

Favourite Embed

Satellite Type and Status

ROCKET BODYIN ORBIT

Key statistics

Satellite IUS R/B(1) at a glance.

Uptime

9587

Days in orbit

Revolutions

≈ 2.3

Per day

Orbit

GTO

Geostationary Transfer Orbit

Inclination

28.2

Latest

Satellite identification and parameters

Extended collection of information and parameters for IUS R/B(1).

Object identification

Identified? True

Debris? False

Object name: IUS R/B(1)

International designator: 1999-017C

Object number (NORAD): 25671

Object ID (CCSDS): 25671

Country: UNITED STATES OF AMERICA (US)

Current information (Y/N): Y

RCS size: LARGE

Orbital parameters

Period: 628.844 minutes

Inclination: 28.1917 deg

SMA: 24313.955 km

Apoapsis: 35469.914 km

Periapsis: 401.726 km

RAAN: 125.408 deg

Eccentricy: 0.7211535

Argument of periapsis: 81.6381 deg

Mean anomaly: 347.25 deg

Mean motion: 2.28991495 rev/day

Mean motion (dot): 0.00000217 rev/day2

B* drag term: 0.00042509 1/REarth

Two-line elements (TLE)

Creation date: July 4, 2025, 6:39 p.m.

Reference frame: TEME

Reference center: EARTH

Epoch: July 4, 2025, 6:51 a.m. UTC

TLE line 0: 0 IUS R/B(1)

TLE line 1: 1 25671U 99017C 25185.28580744 .00000217 00000-0 42509-3 0 9999

TLE line 2: 2 25671 28.1917 125.4080 7211535 81.6381 347.2500 2.28991495 51750

Live tracking on map

Real-time ground track for satellite IUS R/B(1).

In-orbit conjunctions

There are no conjunctions computed for IUS R/B(1), at the moment. Check back to stay up to date, as we update our databases every day.

Go to all conjunctions

Associated space launch

Early warning satellite

IUS R/B(1) was lifted into orbit during the mission ‘Titan 402B IUS | DSP 19’, on board a Titan 402B IUS space rocket.

The launch took place on April 9, 1999, 5:01 p.m. from Space Launch Complex 41.

For more information about the launch, click the button.

Launch to space Titan 402B IUS | DSP 19
Titan 402B IUS | DSP 19

Agency: N/A

Status: Launch Failure

Launch date: April 9, 1999, 5:01 p.m. UTC

Rocket: Titan 402B IUS

Launch pad: Space Launch Complex 41

Location: Cape Canaveral SFS, FL, USA

...

Latest news about this satellite

There are no fresh news available about this satellite. Check back as we update our databases every day.


Newsletter sign-up

Weekly statistics, charts and insights to help you stay on top of the space industry.